Time,TemperatureF,DewpointF,PressureIn,WindDirection,WindDirectionDegrees,WindSpeedMPH,WindSpeedGustMPH,Humidity,HourlyPrecipIn,Conditions,Clouds,dailyrainin,SoftwareType,DateUTC
2013-08-03 00:13:00,58.9,57.0,30.10,NNE,20,4.0,11.0,93,0.00,,,0.00,weatherlink.com 1.10,2013-08-03 07:13:00,
2013-08-03 00:28:00,59.1,57.0,30.09,NNE,22,3.0,7.0,92,0.00,,,0.00,weatherlink.com 1.10,2013-08-03 07:28:00,
2013-08-03 00:43:00,59.1,57.0,30.09,NW,321,3.0,8.0,92,0.00,,,0.00,weatherlink.com 1.10,2013-08-03 07:43:00,
2013-08-03 00:58:00,59.1,57.0,30.09,NW,315,2.0,6.0,92,0.00,,,0.00,weatherlink.com 1.10,2013-08-03 07:58:00,
2013-08-03 01:13:00,59.2,57.0,30.09,WNW,301,1.0,4.0,91,0.00,,,0.00,weatherlink.com 1.10,2013-08-03 08:13:00,
2013-08-03 01:28:00,59.2,57.0,30.09,West,275,3.0,7.0,91,0.00,,,0.00,weatherlink.com 1.10,2013-08-03 08:28:00,
2013-08-03 01:43:00,59.1,57.0,30.08,NW,323,0.0,7.0,92,0.00,,,0.00,weatherlink.com 1.10,2013-08-03 08:43:00,
2013-08-03 01:58:00,59.0,57.0,30.08,NNW,328,1.0,5.0,92,0.00,,,0.00,weatherlink.com 1.10,2013-08-03 08:58:00,
2013-08-03 02:13:00,59.1,57.0,30.08,NW,308,3.0,5.0,92,0.00,,,0.00,weatherlink.com 1.10,2013-08-03 09:13:00,
2013-08-03 02:28:00,59.1,57.0,30.08,NW,307,1.0,4.0,92,0.00,,,0.00,weatherlink.com 1.10,2013-08-03 09:28:00,
2013-08-03 02:43:00,59.1,57.0,30.08,NNE,15,2.0,5.0,93,0.00,,,0.00,weatherlink.com 1.10,2013-08-03 09:43:00,
2013-08-03 02:58:00,59.0,57.0,30.08,NW,315,0.0,5.0,93,0.00,,,0.00,weatherlink.com 1.10,2013-08-03 09:58:00,
2013-08-03 03:13:00,58.8,57.0,30.08,WSW,258,2.0,4.0,94,0.00,,,0.00,weatherlink.com 1.10,2013-08-03 10:13:00,
2013-08-03 03:28:00,58.7,57.0,30.08,NNW,330,0.0,5.0,94,0.00,,,0.00,weatherlink.com 1.10,2013-08-03 10:28:00,
2013-08-03 03:43:00,58.6,57.0,30.07,NW,320,2.0,3.0,94,0.00,,,0.00,weatherlink.com 1.10,2013-08-03 10:43:00,
2013-08-03 03:58:00,58.4,57.0,30.07,NW,323,0.0,4.0,94,0.00,,,0.00,weatherlink.com 1.10,2013-08-03 10:58:00,
2013-08-03 04:13:00,58.3,57.0,30.07,WNW,299,0.0,3.0,94,0.00,,,0.00,weatherlink.com 1.10,2013-08-03 11:13:00,
2013-08-03 04:28:00,58.1,56.0,30.07,West,278,1.0,1.0,94,0.00,,,0.00,weatherlink.com 1.10,2013-08-03 11:28:00,
2013-08-03 04:43:00,58.2,57.0,30.07,NNW,328,1.0,2.0,94,0.00,,,0.00,weatherlink.com 1.10,2013-08-03 11:43:00,
2013-08-03 04:58:00,58.2,57.0,30.07,NNE,25,1.0,5.0,94,0.00,,,0.00,weatherlink.com 1.10,2013-08-03 11:58:00,
2013-08-03 05:13:00,58.3,57.0,30.07,NW,304,0.0,3.0,94,0.00,,,0.00,weatherlink.com 1.10,2013-08-03 12:13:00,
2013-08-03 05:28:00,58.4,57.0,30.07,WNW,292,1.0,4.0,94,0.00,,,0.00,weatherlink.com 1.10,2013-08-03 12:28:00,
2013-08-03 05:43:00,58.5,57.0,30.07,NW,323,2.0,4.0,94,0.00,,,0.00,weatherlink.com 1.10,2013-08-03 12:43:00,
2013-08-03 05:58:00,58.6,57.0,30.08,NNE,18,0.0,3.0,93,0.00,,,0.00,weatherlink.com 1.10,2013-08-03 12:58:00,
2013-08-03 06:13:00,58.8,57.0,30.08,NNE,13,0.0,6.0,92,0.00,,,0.00,weatherlink.com 1.10,2013-08-03 13:13:00,
2013-08-03 06:28:00,58.9,56.0,30.08,NNW,347,0.0,2.0,91,0.00,,,0.00,weatherlink.com 1.10,2013-08-03 13:28:00,
2013-08-03 06:43:00,59.0,56.0,30.09,West,265,2.0,7.0,91,0.00,,,0.00,weatherlink.com 1.10,2013-08-03 13:43:00,
2013-08-03 06:58:00,59.1,57.0,30.09,NNW,336,0.0,5.0,91,0.00,,,0.00,weatherlink.com 1.10,2013-08-03 13:58:00,
2013-08-03 07:13:00,59.2,57.0,30.09,North,359,0.0,3.0,91,0.00,,,0.00,weatherlink.com 1.10,2013-08-03 14:13:00,
2013-08-03 07:28:00,59.2,56.0,30.09,NE,46,1.0,4.0,90,0.00,,,0.00,weatherlink.com 1.10,2013-08-03 14:28:00,
2013-08-03 07:43:00,59.5,57.0,30.09,WNW,290,0.0,4.0,90,0.00,,,0.00,weatherlink.com 1.10,2013-08-03 14:43:00,
2013-08-03 07:58:00,59.8,57.0,30.09,NW,324,0.0,9.0,89,0.00,,,0.00,weatherlink.com 1.10,2013-08-03 14:58:00,
2013-08-03 08:14:00,60.3,57.0,30.09,NW,322,2.0,6.0,88,0.00,,,0.00,weatherlink.com 1.10,2013-08-03 15:14:00,
2013-08-03 08:29:00,60.6,57.0,30.09,NE,35,4.0,7.0,88,0.00,,,0.00,weatherlink.com 1.10,2013-08-03 15:29:00,
2013-08-03 08:44:00,60.7,57.0,30.09,West,261,0.0,5.0,88,0.00,,,0.00,weatherlink.com 1.10,2013-08-03 15:44:00,
2013-08-03 08:59:00,60.6,57.0,30.09,WSW,249,0.0,5.0,88,0.00,,,0.00,weatherlink.com 1.10,2013-08-03 15:59:00,
2013-08-03 09:14:00,60.7,57.0,30.09,NW,319,4.0,6.0,87,0.00,,,0.00,weatherlink.com 1.10,2013-08-03 16:14:00,
2013-08-03 09:29:00,61.2,57.0,30.09,West,278,0.0,4.0,86,0.00,,,0.00,weatherlink.com 1.10,2013-08-03 16:29:00,
2013-08-03 09:44:00,61.9,58.0,30.09,WNW,293,1.0,5.0,86,0.00,,,0.00,weatherlink.com 1.10,2013-08-03 16:44:00,
2013-08-03 09:59:00,62.7,58.0,30.09,West,278,2.0,5.0,85,0.00,,,0.00,weatherlink.com 1.10,2013-08-03 16:59:00,
2013-08-03 10:14:00,62.6,58.0,30.09,West,276,3.0,9.0,84,0.00,,,0.00,weatherlink.com 1.10,2013-08-03 17:14:00,
2013-08-03 10:29:00,62.4,58.0,30.09,West,279,3.0,8.0,85,0.00,,,0.00,weatherlink.com 1.10,2013-08-03 17:29:00,
2013-08-03 10:44:00,63.1,58.0,30.09,WNW,290,1.0,5.0,84,0.00,,,0.00,weatherlink.com 1.10,2013-08-03 17:44:00,
2013-08-03 10:59:00,63.7,59.0,30.09,West,266,1.0,5.0,83,0.00,,,0.00,weatherlink.com 1.10,2013-08-03 17:59:00,
2013-08-03 11:14:00,64.5,59.0,30.09,West,279,0.0,4.0,81,0.00,,,0.00,weatherlink.com 1.10,2013-08-03 18:14:00,
2013-08-03 11:29:00,65.8,59.0,30.09,NW,323,1.0,6.0,79,0.00,,,0.00,weatherlink.com 1.10,2013-08-03 18:29:00,
2013-08-03 11:44:00,65.9,59.0,30.09,West,270,3.0,6.0,78,0.00,,,0.00,weatherlink.com 1.10,2013-08-03 18:44:00,
2013-08-03 11:59:00,66.7,60.0,30.08,NW,304,3.0,5.0,79,0.00,,,0.00,weatherlink.com 1.10,2013-08-03 18:59:00,
2013-08-03 12:14:00,68.3,61.0,30.07,West,280,2.0,6.0,77,0.00,,,0.00,weatherlink.com 1.10,2013-08-03 19:14:00,
2013-08-03 12:29:00,69.9,60.0,30.07,WNW,290,0.0,6.0,72,0.00,,,0.00,weatherlink.com 1.10,2013-08-03 19:29:00,
2013-08-03 12:44:00,70.9,61.0,30.07,ENE,69,0.0,6.0,72,0.00,,,0.00,weatherlink.com 1.10,2013-08-03 19:44:00,
2013-08-03 12:59:00,71.6,60.0,30.06,West,264,4.0,9.0,67,0.00,,,0.00,weatherlink.com 1.10,2013-08-03 19:59:00,
2013-08-03 13:14:00,71.8,60.0,30.06,West,266,2.0,10.0,67,0.00,,,0.00,weatherlink.com 1.10,2013-08-03 20:14:00,
2013-08-03 13:29:00,72.3,61.0,30.05,West,279,3.0,15.0,67,0.00,,,0.00,weatherlink.com 1.10,2013-08-03 20:29:00,
2013-08-03 13:44:00,73.6,61.0,30.05,WSW,256,8.0,12.0,65,0.00,,,0.00,weatherlink.com 1.10,2013-08-03 20:44:00,
2013-08-03 13:59:00,73.8,61.0,30.05,WNW,292,8.0,13.0,64,0.00,,,0.00,weatherlink.com 1.10,2013-08-03 20:59:00,
2013-08-03 14:14:00,74.2,62.0,30.05,West,277,4.0,12.0,65,0.00,,,0.00,weatherlink.com 1.10,2013-08-03 21:14:00,
2013-08-03 14:30:00,75.3,60.0,30.04,NNE,15,5.0,11.0,60,0.00,,,0.00,weatherlink.com 1.10,2013-08-03 21:30:00,
2013-08-03 14:45:00,75.1,60.0,30.04,West,269,7.0,13.0,60,0.00,,,0.00,weatherlink.com 1.10,2013-08-03 21:45:00,
2013-08-03 15:00:00,76.2,61.0,30.03,NNE,29,3.0,13.0,60,0.00,,,0.00,weatherlink.com 1.10,2013-08-03 22:00:00,
2013-08-03 15:15:00,76.1,61.0,30.03,NW,319,7.0,15.0,60,0.00,,,0.00,weatherlink.com 1.10,2013-08-03 22:15:00,
2013-08-03 15:30:00,76.7,61.0,30.02,NNW,339,7.0,18.0,59,0.00,,,0.00,weatherlink.com 1.10,2013-08-03 22:30:00,
2013-08-03 15:45:00,77.1,61.0,30.02,WNW,290,4.0,17.0,58,0.00,,,0.00,weatherlink.com 1.10,2013-08-03 22:45:00,
2013-08-03 16:00:00,77.2,61.0,30.02,WNW,295,9.0,14.0,58,0.00,,,0.00,weatherlink.com 1.10,2013-08-03 23:00:00,
2013-08-03 16:15:00,76.8,61.0,30.01,WSW,256,12.0,15.0,59,0.00,,,0.00,weatherlink.com 1.10,2013-08-03 23:15:00,
2013-08-03 16:30:00,76.4,61.0,30.01,West,278,8.0,19.0,59,0.00,,,0.00,weatherlink.com 1.10,2013-08-03 23:30:00,
2013-08-03 16:45:00,77.3,61.0,30.00,West,264,4.0,10.0,58,0.00,,,0.00,weatherlink.com 1.10,2013-08-03 23:45:00,
2013-08-03 17:00:00,77.7,61.0,30.00,NW,321,3.0,11.0,57,0.00,,,0.00,weatherlink.com 1.10,2013-08-04 00:00:00,
2013-08-03 17:15:00,77.9,61.0,30.00,WSW,257,1.0,10.0,57,0.00,,,0.00,weatherlink.com 1.10,2013-08-04 00:15:00,
2013-08-03 17:30:00,77.6,61.0,30.00,North,7,6.0,12.0,57,0.00,,,0.00,weatherlink.com 1.10,2013-08-04 00:30:00,
2013-08-03 17:45:00,77.1,61.0,29.99,West,260,4.0,11.0,58,0.00,,,0.00,weatherlink.com 1.10,2013-08-04 00:45:00,
2013-08-03 18:00:00,76.6,61.0,29.99,WNW,302,3.0,13.0,59,0.00,,,0.00,weatherlink.com 1.10,2013-08-04 01:00:00,
2013-08-03 18:15:00,76.4,60.0,29.98,NW,316,4.0,12.0,58,0.00,,,0.00,weatherlink.com 1.10,2013-08-04 01:15:00,
2013-08-03 18:30:00,75.8,60.0,29.98,NW,326,1.0,12.0,59,0.00,,,0.00,weatherlink.com 1.10,2013-08-04 01:30:00,
2013-08-03 18:45:00,75.0,60.0,29.98,NW,315,6.0,13.0,59,0.00,,,0.00,weatherlink.com 1.10,2013-08-04 01:45:00,
2013-08-03 19:00:00,74.4,60.0,29.98,North,352,3.0,13.0,61,0.00,,,0.00,weatherlink.com 1.10,2013-08-04 02:00:00,
2013-08-03 19:15:00,74.0,60.0,29.98,NNW,348,3.0,10.0,62,0.00,,,0.00,weatherlink.com 1.10,2013-08-04 02:15:00,
2013-08-03 19:30:00,73.3,60.0,29.98,NNE,13,2.0,11.0,63,0.00,,,0.00,weatherlink.com 1.10,2013-08-04 02:30:00,
2013-08-03 19:45:00,72.8,59.0,29.98,NE,50,7.0,11.0,63,0.00,,,0.00,weatherlink.com 1.10,2013-08-04 02:45:00,
2013-08-03 20:00:00,71.9,59.0,29.98,North,4,1.0,9.0,65,0.00,,,0.00,weatherlink.com 1.10,2013-08-04 03:00:00,
2013-08-03 20:15:00,70.7,59.0,29.98,North,352,5.0,8.0,67,0.00,,,0.00,weatherlink.com 1.10,2013-08-04 03:15:00,
2013-08-03 20:30:00,69.2,59.0,29.98,NE,34,0.0,10.0,70,0.00,,,0.00,weatherlink.com 1.10,2013-08-04 03:30:00,
2013-08-03 20:46:00,68.3,59.0,29.98,NE,39,7.0,12.0,72,0.00,,,0.00,weatherlink.com 1.10,2013-08-04 03:46:00,
2013-08-03 21:00:00,67.8,58.0,29.98,NNW,336,2.0,8.0,72,0.00,,,0.00,weatherlink.com 1.10,2013-08-04 04:00:00,
2013-08-03 21:15:00,67.5,59.0,29.98,NNE,19,1.0,10.0,73,0.00,,,0.00,weatherlink.com 1.10,2013-08-04 04:15:00,
2013-08-03 21:30:00,67.1,59.0,29.99,WNW,286,0.0,7.0,74,0.00,,,0.00,weatherlink.com 1.10,2013-08-04 04:30:00,
2013-08-03 21:45:00,66.7,59.0,29.99,NNE,29,0.0,9.0,75,0.00,,,0.00,weatherlink.com 1.10,2013-08-04 04:45:00,
2013-08-03 22:00:00,66.6,58.0,30.00,NNE,15,2.0,4.0,75,0.00,,,0.00,weatherlink.com 1.10,2013-08-04 05:00:00,
2013-08-03 22:15:00,66.0,58.0,29.99,NW,311,1.0,7.0,76,0.00,,,0.00,weatherlink.com 1.10,2013-08-04 05:15:00,
2013-08-03 22:30:00,65.7,58.0,29.99,North,352,2.0,5.0,77,0.00,,,0.00,weatherlink.com 1.10,2013-08-04 05:30:00,
2013-08-03 22:45:00,65.6,58.0,29.99,NW,324,6.0,10.0,77,0.00,,,0.00,weatherlink.com 1.10,2013-08-04 05:45:00,
2013-08-03 23:00:00,65.4,58.0,29.99,NW,323,3.0,9.0,78,0.00,,,0.00,weatherlink.com 1.10,2013-08-04 06:00:00,
2013-08-03 23:15:00,65.2,58.0,29.99,NW,324,0.0,5.0,78,0.00,,,0.00,weatherlink.com 1.10,2013-08-04 06:15:00,
2013-08-03 23:30:00,64.7,58.0,29.98,WNW,291,3.0,6.0,79,0.00,,,0.00,weatherlink.com 1.10,2013-08-04 06:30:00,
2013-08-03 23:45:00,64.5,58.0,29.99,NE,45,0.0,5.0,80,0.00,,,0.00,weatherlink.com 1.10,2013-08-04 06:45:00,